• In Hungary
  • List of Countries
  • For 7 days
  • Water Temperature
  • Satellite Maps
  • Weather Map
  • News
  • Weather Widgets
  • user-avatar
    Login

    Hourly Weather Strozewice

    Today, 16 July, Monday

    Time Temperature Precipitation Wind Pressure Humidity
    00:00 +16°C° 0 mm 2 mps 753 mmHg 91%
    01:00 +16°C° 0 mm 2 mps 753 mmHg 93%
    02:00 +15°C° 0 mm 2 mps 753 mmHg 93%
    03:00 +15°C° 0 mm 2 mps 753 mmHg 94%
    04:00 +15°C° 0 mm 2 mps 753 mmHg 94%
    05:00 +16°C° 0 mm 2 mps 753 mmHg 88%
    06:00 +18°C° 0 mm 2 mps 753 mmHg 83%
    07:00 +19°C° 0 mm 2 mps 753 mmHg 77%
    08:00 +21°C° 0 mm 3 mps 753 mmHg 70%
    09:00 +24°C° 0 mm 3 mps 752 mmHg 63%
    10:00 +26°C° 0 mm 3 mps 752 mmHg 55%
    11:00 +27°C° 0.2 mm 3 mps 752 mmHg 53%
    12:00 +28°C° 0.2 mm 3 mps 752 mmHg 51%
    13:00 +29°C° 0.2 mm 4 mps 751 mmHg 49%
    14:00 +27°C° 0.5 mm 3 mps 751 mmHg 56%
    15:00 +26°C° 0.5 mm 3 mps 751 mmHg 64%
    16:00 +25°C° 0.5 mm 3 mps 751 mmHg 71%
    17:00 +24°C° 0.3 mm 3 mps 750 mmHg 76%
    18:00 +22°C° 0.3 mm 3 mps 750 mmHg 81%
    19:00 +21°C° 0.3 mm 3 mps 750 mmHg 86%
    20:00 +20°C° 0.3 mm 3 mps 750 mmHg 88%
    21:00 +20°C° 0.3 mm 3 mps 750 mmHg 89%
    22:00 +19°C° 0.3 mm 3 mps 750 mmHg 91%
    23:00 +19°C° 0.7 mm 3 mps 750 mmHg 92%

    Tomorrow, 17 July, Tuesday

    Time Temperature Precipitation Wind Pressure Humidity
    00:00 +18°C° 0.7 mm 4 mps 749 mmHg 92%
    01:00 +18°C° 0.7 mm 4 mps 749 mmHg 93%
    02:00 +18°C° 2.1 mm 4 mps 749 mmHg 93%
    03:00 +18°C° 2.1 mm 4 mps 749 mmHg 94%
    04:00 +17°C° 2.1 mm 5 mps 748 mmHg 95%
    05:00 +17°C° 2.5 mm 5 mps 748 mmHg 95%
    06:00 +17°C° 2.5 mm 5 mps 748 mmHg 95%
    07:00 +17°C° 2.5 mm 5 mps 748 mmHg 95%
    08:00 +19°C° 1 mm 5 mps 748 mmHg 94%
    09:00 +20°C° 1 mm 5 mps 748 mmHg 93%
    10:00 +20°C° 1 mm 4 mps 748 mmHg 92%
    11:00 +21°C° 0.5 mm 4 mps 748 mmHg 89%
    12:00 +22°C° 0.5 mm 4 mps 747 mmHg 87%
    13:00 +22°C° 0.5 mm 4 mps 747 mmHg 85%
    14:00 +22°C° 0.9 mm 4 mps 747 mmHg 85%
    15:00 +23°C° 0.9 mm 4 mps 747 mmHg 85%
    16:00 +23°C° 0.9 mm 4 mps 747 mmHg 85%
    17:00 +22°C° 1 mm 3 mps 748 mmHg 87%
    18:00 +21°C° 1 mm 3 mps 748 mmHg 90%
    19:00 +21°C° 1 mm 3 mps 748 mmHg 93%
    20:00 +20°C° 0.9 mm 3 mps 748 mmHg 94%
    21:00 +20°C° 0.9 mm 3 mps 748 mmHg 95%
    22:00 +19°C° 0.9 mm 2 mps 748 mmHg 97%
    23:00 +19°C° 0.4 mm 3 mps 748 mmHg 97%

    Day after tomorrow, 18 July, Wednesday

    Time Temperature Precipitation Wind Pressure Humidity
    00:00 +19°C° 0.4 mm 3 mps 748 mmHg 97%
    01:00 +19°C° 0.4 mm 3 mps 748 mmHg 97%
    02:00 +19°C° 0.2 mm 3 mps 748 mmHg 97%
    03:00 +19°C° 0.2 mm 3 mps 748 mmHg 97%
    04:00 +19°C° 0.2 mm 3 mps 748 mmHg 97%
    05:00 +19°C° 0.4 mm 3 mps 748 mmHg 96%
    06:00 +19°C° 0.4 mm 4 mps 748 mmHg 95%
    07:00 +19°C° 0.4 mm 4 mps 748 mmHg 94%
    08:00 +20°C° 0.9 mm 4 mps 748 mmHg 94%
    09:00 +20°C° 0.9 mm 4 mps 749 mmHg 93%
    10:00 +20°C° 0.9 mm 5 mps 749 mmHg 92%
    11:00 +21°C° 0.6 mm 5 mps 749 mmHg 90%
    12:00 +21°C° 0.6 mm 5 mps 749 mmHg 89%
    13:00 +22°C° 0.6 mm 6 mps 749 mmHg 87%
    14:00 +21°C° 0.3 mm 6 mps 750 mmHg 88%
    15:00 +21°C° 0.3 mm 6 mps 750 mmHg 88%
    16:00 +21°C° 0.3 mm 6 mps 750 mmHg 89%
    17:00 +20°C° 0.1 mm 6 mps 750 mmHg 89%
    18:00 +20°C° 0.1 mm 5 mps 750 mmHg 90%
    19:00 +20°C° 0.1 mm 5 mps 751 mmHg 90%
    20:00 +19°C° 0.1 mm 5 mps 751 mmHg 91%
    21:00 +19°C° 0.1 mm 4 mps 751 mmHg 92%
    22:00 +19°C° 0.1 mm 4 mps 751 mmHg 93%
    23:00 +18°C° 0.3 mm 4 mps 751 mmHg 94%

    19 July, Thursday

    Time Temperature Precipitation Wind Pressure Humidity
    00:00 +18°C° 0.3 mm 4 mps 751 mmHg 94%
    01:00 +18°C° 0.3 mm 3 mps 751 mmHg 95%
    02:00 +18°C° 0.2 mm 3 mps 751 mmHg 95%
    03:00 +18°C° 0.2 mm 4 mps 751 mmHg 95%
    04:00 +18°C° 0.2 mm 4 mps 751 mmHg 95%
    05:00 +18°C° 0.2 mm 4 mps 752 mmHg 94%
    06:00 +19°C° 0.2 mm 4 mps 752 mmHg 93%
    07:00 +19°C° 0.2 mm 4 mps 752 mmHg 92%
    08:00 +19°C° 0.2 mm 4 mps 752 mmHg 90%
    09:00 +20°C° 0.2 mm 4 mps 752 mmHg 89%
    10:00 +20°C° 0.2 mm 4 mps 752 mmHg 87%
    11:00 +21°C° 0.1 mm 4 mps 752 mmHg 83%
    12:00 +22°C° 0.1 mm 4 mps 752 mmHg 80%
    13:00 +23°C° 0.1 mm 5 mps 752 mmHg 76%
    14:00 +23°C° 0.2 mm 5 mps 752 mmHg 76%
    15:00 +25°C° 0.2 mm 5 mps 752 mmHg 75%
    16:00 +25°C° 0.2 mm 5 mps 752 mmHg 75%
    17:00 +23°C° 0.1 mm 4 mps 752 mmHg 77%
    18:00 +23°C° 0.1 mm 4 mps 752 mmHg 80%
    19:00 +22°C° 0.1 mm 3 mps 752 mmHg 82%
    20:00 +21°C° 0 mm 3 mps 752 mmHg 86%
    21:00 +20°C° 0 mm 3 mps 752 mmHg 90%
    22:00 +18°C° 0 mm 3 mps 753 mmHg 94%
    23:00 +18°C° 0 mm 3 mps 752 mmHg 94%

    20 July, Friday

    Time Temperature Precipitation Wind Pressure Humidity
    00:00 +18°C° 0 mm 2 mps 752 mmHg 94%
    01:00 +18°C° 0 mm 2 mps 752 mmHg 94%
    02:00 +17°C° 0 mm 2 mps 752 mmHg 94%
    03:00 +17°C° 0 mm 2 mps 752 mmHg 93%
    04:00 +17°C° 0 mm 2 mps 752 mmHg 93%
    05:00 +18°C° 0 mm 2 mps 752 mmHg 88%
    06:00 +19°C° 0 mm 3 mps 752 mmHg 84%
    07:00 +20°C° 0 mm 3 mps 752 mmHg 79%
    08:00 +22°C° 0 mm 3 mps 752 mmHg 73%
    09:00 +24°C° 0 mm 3 mps 752 mmHg 66%
    10:00 +26°C° 0 mm 3 mps 752 mmHg 60%
    11:00 +27°C° 0.1 mm 3 mps 752 mmHg 57%
    12:00 +27°C° 0.1 mm 3 mps 752 mmHg 55%
    13:00 +28°C° 0.1 mm 3 mps 752 mmHg 52%
    14:00 +28°C° 0.1 mm 3 mps 752 mmHg 53%
    15:00 +28°C° 0.1 mm 3 mps 752 mmHg 53%
    16:00 +28°C° 0.1 mm 3 mps 752 mmHg 53%
    17:00 +26°C° 0 mm 3 mps 752 mmHg 58%
    18:00 +25°C° 0 mm 3 mps 752 mmHg 63%
    19:00 +24°C° 0 mm 3 mps 752 mmHg 68%
    20:00 +21°C° 0 mm 3 mps 752 mmHg 70%
    21:00 +20°C° 0 mm 3 mps 752 mmHg 73%
    22:00 +18°C° 0 mm 3 mps 752 mmHg 75%
    23:00 +18°C° 0 mm 2 mps 752 mmHg 76%

    21 July, Saturday

    Time Temperature Precipitation Wind Pressure Humidity
    00:00 +17°C° 0 mm 2 mps 752 mmHg 76%
    01:00 +17°C° 0 mm 2 mps 752 mmHg 76%
    02:00 +16°C° 0 mm 2 mps 752 mmHg 77%
    03:00 +16°C° 0 mm 2 mps 752 mmHg 77%
    04:00 +16°C° 0 mm 1 mps 752 mmHg 77%
    05:00 +18°C° 0 mm 1 mps 752 mmHg 73%
    06:00 +19°C° 0 mm 1 mps 752 mmHg 69%
    07:00 +21°C° 0 mm 1 mps 752 mmHg 65%
    08:00 +22°C° 0 mm 1 mps 753 mmHg 60%
    09:00 +24°C° 0 mm 1 mps 753 mmHg 55%
    10:00 +26°C° 0 mm 1 mps 753 mmHg 50%
    11:00 +26°C° 0 mm 1 mps 753 mmHg 47%
    12:00 +27°C° 0 mm 1 mps 752 mmHg 44%
    13:00 +28°C° 0 mm 1 mps 752 mmHg 41%
    14:00 +28°C° 0 mm 1 mps 752 mmHg 41%
    15:00 +28°C° 0 mm 2 mps 752 mmHg 41%
    16:00 +28°C° 0 mm 2 mps 752 mmHg 41%
    17:00 +27°C° 0 mm 2 mps 752 mmHg 47%
    18:00 +25°C° 0 mm 2 mps 752 mmHg 53%
    19:00 +24°C° 0 mm 2 mps 752 mmHg 58%
    20:00 +23°C° 0 mm 2 mps 752 mmHg 62%
    21:00 +20°C° 0 mm 2 mps 752 mmHg 66%
    22:00 +19°C° 0 mm 3 mps 752 mmHg 69%
    23:00 +18°C° 0 mm 2 mps 752 mmHg 73%
    Show more